KB5SQG Weather Reports


time (UTC)temp
F
wind
direction
speed
knots
gust
knots
rain 1hr
in
rain 24hr
in
rain mn
in
humidity
%
barometer
mb
20260906223637 104 0.0 0.0 0.00 0.00 0.00 37 1010.9
20260906222617 104 0.0 0.0 0.00 0.00 0.00 36 1010.9
20260906221617 103 0.0 0.0 0.00 0.00 0.00 34 1011.0
20260906220637 102 0.0 0.0 0.00 0.00 0.00 37 1011.1
20260906215615 102 0.0 0.9 0.00 0.00 0.00 35 1011.2
20260906214617 103 0.0 0.0 0.00 0.00 0.00 35 1011.4
20260906213617 104 0.0 0.0 0.00 0.00 0.00 34 1011.5
20260906212617 103 0.0 0.0 0.00 0.00 0.00 36 1011.6
20260906211617 105 0.0 0.0 0.00 0.00 0.00 34 1011.6
20260906210637 105 0.0 0.0 0.00 0.00 0.00 34 1011.6
20260906205617 104 0.0 0.0 0.00 0.00 0.00 35 1011.8
20260906204617 103 0.0 0.0 0.00 0.00 0.00 37 1011.9
20260906203617 102 0.0 0.0 0.00 0.00 0.00 38 1011.9
20260906202617 103 0.0 0.0 0.00 0.00 0.00 36 1012.1
20260906201617 104 0.0 0.0 0.00 0.00 0.00 35 1012.1
20260906200637 103 0.0 0.0 0.00 0.00 0.00 36 1012.2
20260906195617 103 0.0 0.0 0.00 0.00 0.00 36 1012.4
20260906194617 103 0.0 0.0 0.00 0.00 0.00 37 1012.5
20260906193617 105 0.0 0.0 0.00 0.00 0.00 36 1012.5
20260906192617 104 0.0 0.0 0.00 0.00 0.00 36 1012.7
20260906191657 105 0.0 0.0 0.00 0.00 0.00 35 1012.9
20260906190617 104 0.0 0.0 0.00 0.00 0.00 36 1013.1
20260906185617 102 0.0 0.0 0.00 0.00 0.00 38 1013.2
20260906184617 104 0.0 0.0 0.00 0.00 0.00 37 1013.2
20260906183637 102 0.0 0.0 0.00 0.00 0.00 40 1013.3
20260906182617 103 0.0 0.0 0.00 0.00 0.00 40 1013.4
20260906181617 103 0.0 0.0 0.00 0.00 0.00 38 1013.6
20260906180637 102 0.0 0.0 0.00 0.00 0.00 39 1013.8
20260906175617 102 0.0 0.0 0.00 0.00 0.00 40 1014.0
20260906174617 101 0.0 0.0 0.00 0.00 0.00 42 1014.2
20260906173617 101 0.0 0.0 0.00 0.00 0.00 43 1014.3
20260906172617 101 0.0 0.0 0.00 0.00 0.00 44 1014.5
20260906171617 99 0.0 0.0 0.00 0.00 0.00 45 1014.7
20260906170617 98 0.0 1.7 0.00 0.00 0.00 46 1014.9
20260906165637 99 0.0 0.0 0.00 0.00 0.00 45 1015.1
20260906164617 99 0.0 0.0 0.00 0.00 0.00 46 1015.3
20260906163618 98 0.0 0.0 0.00 0.00 0.00 47 1015.4
20260906162617 98 0.0 0.0 0.00 0.00 0.00 50 1015.6
20260906161617 97 0.0 0.0 0.00 0.00 0.00 52 1015.6
20260906160617 95 0.0 0.0 0.00 0.00 0.00 53 1015.5
20260906155637 94 0.0 0.9 0.00 0.00 0.00 54 1015.5
20260906154617 94 0.0 0.9 0.00 0.00 0.00 54 1015.5
20260906153617 93 0.0 0.0 0.00 0.00 0.00 56 1015.4
20260906152617 92 0.0 0.9 0.00 0.00 0.00 60 1015.3
20260906151657 92 0.0 0.0 0.00 0.00 0.00 62 1015.4
20260906150617 89 0.0 0.9 0.00 0.00 0.00 65 1015.3
20260906145617 89 0.0 1.7 0.00 0.00 0.00 65 1015.5
20260906144657 89 0.0 0.0 0.00 0.00 0.00 66 1015.6
20260906143638 89 0.0 0.0 0.00 0.00 0.00 67 1015.7
20260906142617 87 0.0 0.0 0.00 0.00 0.00 70 1015.7
20260906141617 85 0.0 0.0 0.00 0.00 0.00 73 1015.8
20260906140617 83 0.0 0.0 0.00 0.00 0.00 77 1015.7
20260906135615 81 0.0 0.0 0.00 0.00 0.00 78 1015.8
20260906134637 79 0.0 0.0 0.00 0.00 0.00 82 1015.6
20260906133637 77 0.0 0.0 0.00 0.00 0.00 87 1015.6
20260906132617 76 0.0 0.0 0.00 0.00 0.00 88 1015.6
20260906131617 74 0.0 0.0 0.00 0.00 0.00 88 1015.5
20260906130617 74 0.0 0.0 0.00 0.00 0.00 89 1015.5
20260906125617 73 0.0 0.0 0.00 0.00 0.00 89 1015.3
20260906124617 72 0.0 0.0 0.00 0.00 0.00 90 1015.2
20260906123617 72 0.0 0.0 0.00 0.00 0.00 89 1015.2
20260906122615 72 0.0 0.0 0.00 0.00 0.00 89 1015.1
20260906121615 72 0.0 0.0 0.00 0.00 0.00 89 1015.1
20260906120615 72 0.0 0.0 0.00 0.00 0.00 89 1014.9
20260906115615 72 0.0 0.0 0.00 0.00 0.00 89 1014.7
20260906114615 73 0.0 0.0 0.00 0.00 0.00 88 1014.6
20260906113615 73 0.0 0.0 0.00 0.00 0.00 88 1014.6
20260906112615 73 0.0 0.0 0.00 0.00 0.00 88 1014.5
20260906111615 73 0.0 0.0 0.00 0.00 0.00 87 1014.3
20260906110615 73 0.0 0.0 0.00 0.00 0.00 87 1014.3
20260906105615 73 0.0 0.0 0.00 0.00 0.00 87 1014.2
20260906104615 73 0.0 0.0 0.00 0.00 0.00 87 1014.2
20260906103615 74 0.0 0.0 0.00 0.00 0.00 87 1014.2
20260906102615 74 0.0 0.0 0.00 0.00 0.00 86 1014.1
20260906101616 74 0.0 0.0 0.00 0.00 0.00 86 1014.0
20260906100635 74 0.0 0.0 0.00 0.00 0.00 86 1014.0
20260906095615 74 0.0 0.0 0.00 0.00 0.00 86 1014.0
20260906094615 75 0.0 0.0 0.00 0.00 0.00 86 1013.8
20260906093615 75 0.0 0.0 0.00 0.00 0.00 85 1013.7
20260906092615 75 0.0 0.0 0.00 0.00 0.00 85 1013.6
20260906091615 75 0.0 0.0 0.00 0.00 0.00 85 1013.5
20260906090615 76 0.0 0.0 0.00 0.00 0.00 84 1013.4
20260906085635 76 0.0 0.0 0.00 0.00 0.00 83 1013.3
20260906084615 76 0.0 0.0 0.00 0.00 0.00 83 1013.3
20260906083615 76 0.0 0.0 0.00 0.00 0.00 83 1013.5
20260906082615 77 0.0 0.0 0.00 0.00 0.00 82 1013.6
20260906081656 77 0.0 0.0 0.00 0.00 0.00 82 1013.5
20260906080636 77 0.0 0.0 0.00 0.00 0.00 81 1013.6
20260906075616 78 0.0 0.0 0.00 0.00 0.00 80 1013.6
20260906074615 78 0.0 0.0 0.00 0.00 0.00 80 1013.5
20260906073616 78 0.0 0.0 0.00 0.00 0.00 79 1013.5
20260906072615 78 0.0 0.0 0.00 0.00 0.00 79 1013.5
20260906071615 79 0.0 0.0 0.00 0.00 0.00 78 1013.6
20260906070615 79 0.0 0.0 0.00 0.00 0.00 78 1013.7
20260906065615 79 0.0 0.0 0.00 0.00 0.00 77 1013.6
20260906064616 79 0.0 0.0 0.00 0.00 0.00 77 1013.9
20260906063616 80 0.0 0.0 0.00 0.00 0.00 78 1014.0
20260906062635 80 0.0 0.0 0.00 0.00 0.00 77 1013.9
20260906061656 80 0.0 0.0 0.00 0.00 0.00 75 1014.0
20260906060615 80 0.0 0.0 0.00 0.00 0.00 75 1014.0
20260906055615 81 0.0 0.0 0.00 0.00 0.00 74 1014.0
20260906054615 82 0.0 0.0 0.00 0.00 0.00 73 1014.2
20260906053616 82 0.0 0.0 0.00 0.00 0.00 70 1014.0
20260906052615 84 0.0 0.0 0.00 0.00 0.00 68 1013.8
20260906051615 85 0.0 0.0 0.00 0.00 0.00 67 1013.7
20260906050615 85 0.0 0.9 0.00 0.00 0.00 64 1013.7
20260906045617 86 0.0 0.9 0.00 0.00 0.00 64 1013.7
20260906044617 86 0.0 0.0 0.00 0.00 0.00 62 1013.9
20260906043617 87 0.0 0.0 0.00 0.00 0.00 62 1013.8
20260906042617 87 0.0 0.0 0.00 0.00 0.00 60 1013.6
20260906041617 87 0.0 0.9 0.00 0.00 0.00 59 1013.5
20260906040617 88 0.0 0.9 0.00 0.00 0.00 59 1013.5
20260906035617 88 158 0.9 2.6 0.00 0.00 0.00 59 1013.6
20260906034617 88 0.0 0.0 0.00 0.00 0.00 57 1013.7
20260906033617 88 0.0 0.9 0.00 0.00 0.00 57 1013.6
20260906032617 89 158 0.9 2.6 0.00 0.00 0.00 56 1013.6
20260906031617 89 0.0 0.9 0.00 0.00 0.00 55 1013.4
20260906030657 89 0.0 0.0 0.00 0.00 0.00 54 1013.4
20260906025637 90 0.0 0.0 0.00 0.00 0.00 54 1013.2
20260906024617 90 0.0 0.9 0.00 0.00 0.00 54 1013.1
20260906023617 91 135 0.9 2.6 0.00 0.00 0.00 53 1013.0
20260906022617 91 158 0.9 0.9 0.00 0.00 0.00 53 1012.9
20260906021617 91 68 1.7 3.5 0.00 0.00 0.00 52 1012.7
20260906020617 91 0.0 0.9 0.00 0.00 0.00 52 1012.6
20260906015617 92 0.0 0.0 0.00 0.00 0.00 51 1012.4
20260906014617 92 113 0.9 1.7 0.00 0.00 0.00 51 1012.2
20260906013637 91 0.0 0.9 0.00 0.00 0.00 50 1011.9
20260906012637 90 0.0 0.0 0.00 0.00 0.00 55 1011.7
20260906011617 91 0.0 0.0 0.00 0.00 0.00 49 1011.5
20260906010617 93 0.0 0.0 0.00 0.00 0.00 46 1011.4
20260906005617 94 0.0 0.0 0.00 0.00 0.00 44 1011.4
20260906004617 95 0.0 0.0 0.00 0.00 0.00 42 1011.3
20260906003617 96 0.0 0.0 0.00 0.00 0.00 41 1011.3
20260906002617 97 0.0 0.0 0.00 0.00 0.00 39 1011.3
20260906001617 97 0.0 0.0 0.00 0.00 0.00 39 1011.2
20260906000617 98 0.0 0.9 0.00 0.00 0.00 38 1011.1
20260905235617 99 0.0 0.9 0.00 0.00 0.00 37 1011.1
20260905234617 100 0.0 0.9 0.00 0.00 0.00 36 1011.0
20260905233637 100 90 0.9 1.7 0.00 0.00 0.00 36 1011.0
20260905232617 101 0.0 0.0 0.00 0.00 0.00 35 1010.9
20260905231617 101 0.0 0.0 0.00 0.00 0.00 36 1011.0
20260905230617 102 0.0 0.0 0.00 0.00 0.00 35 1011.0
20260905225617 102 0.0 0.0 0.00 0.00 0.00 35 1010.9
20260905224617 102 0.0 0.0 0.00 0.00 0.00 34 1010.9